This is the latest recevied weather packets stored in our database for station/object OK2JF-6. If no packets are shown the sender has not sent any weather packets the latest 10 day(s).
| Time | Temp. | Humidity | Pressure | Rain* | Wind** | Luminosity | Snow |
|---|---|---|---|---|---|---|---|
| 1777717758 | 23.33° C | 30% | 1095.9 hPa | 0 mm | - | 507 W/m² | - |
| 1777717263 | 23.33° C | 31% | 1096.3 hPa | 0 mm | - | 508 W/m² | - |
| 1777716963 | 23.89° C | 31% | 1095.9 hPa | 0 mm | - | 510 W/m² | - |
| 1777716723 | 23.33° C | 32% | 1096.3 hPa | 0 mm | - | 508 W/m² | - |
| 1777716603 | 23.33° C | 32% | 1096.3 hPa | 0 mm | - | 504 W/m² | - |
| 1777716543 | 23.33° C | 31% | 1096.2 hPa | 0 mm | - | 505 W/m² | - |
| 1777715643 | 23.89° C | 32% | 1096.3 hPa | 0 mm | - | 498 W/m² | - |
| 1777715299 | 23.89° C | 31% | 1096.5 hPa | 0 mm | - | 493 W/m² | - |
| 1777714923 | 23.33° C | 31% | 1096.6 hPa | 0 mm | - | 491 W/m² | - |
| 1777714803 | 23.33° C | 32% | 1096.7 hPa | 0 mm | - | 488 W/m² | - |
| 1777714084 | 23.33° C | 32% | 1096.6 hPa | 0 mm | - | 294 W/m² | - |
| 1777713678 | 23.33° C | 32% | 1096.4 hPa | 0 mm | - | 429 W/m² | - |
| 1777713363 | 22.22° C | 34% | 1096.7 hPa | 0 mm | - | 398 W/m² | - |
| 1777712523 | 21.67° C | 35% | 1096.8 hPa | 0 mm | - | 451 W/m² | - |
| 1777712283 | 22.22° C | 34% | 1097 hPa | 0 mm | - | 448 W/m² | - |
| 1777711264 | 21.11° C | 36% | 1097 hPa | 0 mm | - | 427 W/m² | - |
| 1777711203 | 20.56° C | 36% | 1097.1 hPa | 0 mm | - | 425 W/m² | - |
| 1777710903 | 21.11° C | 35% | 1096.9 hPa | 0 mm | - | 419 W/m² | - |
| 1777710423 | 21.11° C | 35% | 1097.1 hPa | 0 mm | - | 407 W/m² | - |
| 1777710197 | 21.11° C | 35% | 1096.9 hPa | 0 mm | - | 403 W/m² | - |
| 1777709943 | 22.22° C | 35% | 1096.9 hPa | 0 mm | - | 397 W/m² | - |
| 1777709344 | 22.78° C | 34% | 1096.8 hPa | 0 mm | - | 382 W/m² | - |
| 1777709163 | 22.78° C | 33% | 1097 hPa | 0 mm | - | 378 W/m² | - |
| 1777709058 | 22.78° C | 34% | 1097.2 hPa | 0 mm | - | 375 W/m² | - |
| 1777709043 | 22.78° C | 34% | 1097.2 hPa | 0 mm | - | 374 W/m² | - |
* Rain latest hour (hover to see other rain measurements)
** Current wind speed in m/s (hover to see current wind gust speed)